Portada
METAR-TAF:

METAR-TAF

Aeroports :

Murray, Kentucky, Estats Units d'Amèrica

latitud: 36-39-52N, longitud: 088-22-22W, altitud: 176 m

Observació

L'informe es va fer fa 30 minuts, a les 17:55 UTC
Vent 3 kt amb direcció variable
Temperatura 31°C
Humitat 49%
Pressió 1026 hPa
Visibilitat: 16.1 km
Núvols disperses a una alçada de 5500 ft

METAR: KCEY 201755Z AUTO VRB03KT 10SM SCT055 31/19 A3031 RMK A01

Hora: 13:25 (18:25 UTC)


TAF: manca

Observacions i pronòstics meteorològics de més de 4000 aeroports (METAR i TAF).

Les estacions disponibles són els punts grocs i vermells al mapa.

Posi el ratolí al punt desitjat per veure el nom de l'estació.

Feu clic per veure les observacions i els pronòstics meteorològics.

Per canviar el mapa: feu clic els botons verds amb una creu de color negre per apropar; al botó verd amb un guió per allunyar la imatge; o en les fletxes verdes per a mapes adjacents.


METAR-TAF: